Theta_e
325 334 347 347 346 343 342 346 345 344 343 342 341 341 341 340 339 338 337 337 339 337 335 333 335 335 334 333 334 334 334 334 334 333 332 331 330 329 330 331 332 328 335
328 338 345 347 347 345 344 345 345 343 342 341 340 339 338 337 336 336 335 336 337 334 334 334 334 334 334 333 332 333 334 333 331 331 331 330 333 330 330 329 328 326 330
334 339 342 345 346 346 347 346 346 343 341 341 339 337 336 336 335 335 335 335 334 334 334 334 334 334 334 332 331 331 332 330 330 330 333 323 324 332 332 331 331 330 329
336 338 340 343 346 347 347 345 344 344 341 339 337 336 335 335 335 334 334 334 334 334 334 333 333 332 332 331 330 329 329 330 328 325 318 318 325 329 331 332 332 331 331
336 338 339 342 345 347 346 345 344 343 339 337 336 335 335 335 335 334 334 333 333 333 333 332 332 331 330 328 328 328 329 329 327 320 316 315 318 325 328 328 331 332 332
336 337 338 343 346 346 346 345 344 341 338 336 336 335 334 334 333 334 333 333 332 332 331 330 328 327 327 327 328 329 329 329 325 316 315 316 318 327 327 329 330 331 334
336 336 339 342 344 345 344 344 342 341 338 337 336 336 336 335 335 333 333 332 331 330 328 327 326 327 327 328 329 330 330 329 322 317 317 317 315 327 328 330 330 333 333
335 337 339 336 339 342 342 342 341 340 339 339 338 337 335 337 336 334 333 331 331 329 328 328 328 328 329 330 331 331 331 329 323 318 318 318 323 329 330 331 333 334 334
336 336 339 339 337 335 337 338 339 339 339 338 338 337 335 336 337 333 335 333 333 331 330 330 330 330 331 331 331 332 330 328 322 320 321 319 325 330 331 333 334 335 336
335 336 336 338 336 336 335 332 334 336 336 336 335 333 331 331 331 332 330 332 332 331 331 330 331 331 331 331 332 330 327 326 321 320 320 320 328 331 332 335 336 335 335
332 333 333 335 336 333 332 330 330 331 331 331 330 327 325 325 325 325 326 328 333 334 334 332 332 332 332 330 328 327 325 321 320 320 320 324 330 333 334 336 337 336 335
327 330 332 333 333 331 334 329 328 330 328 328 327 325 324 323 324 326 322 324 327 328 330 332 332 331 327 322 321 323 321 321 320 320 321 326 332 334 334 336 336 336 335
327 328 331 332 332 332 331 328 325 326 325 325 325 323 323 324 321 322 321 321 320 317 320 321 320 320 320 321 320 320 321 320 320 320 322 326 331 334 333 335 337 336 335
326 329 331 332 332 330 330 327 326 326 323 321 322 323 321 320 319 319 319 320 318 319 317 317 317 319 319 320 321 320 320 320 320 321 321 322 328 334 335 336 335 335 333
326 328 330 332 330 330 328 327 326 325 325 323 322 323 323 321 320 319 319 319 318 318 318 318 319 319 319 320 321 321 322 322 322 322 322 320 325 330 333 335 335 332 331
327 328 330 329 329 329 327 326 326 325 324 323 323 323 324 323 321 320 320 320 319 320 320 320 320 319 319 320 322 324 322 321 321 322 322 322 323 326 329 333 332 330 329
327 328 328 328 328 326 326 325 324 324 324 323 324 324 324 324 323 322 320 320 320 321 320 320 319 319 319 321 321 321 320 320 320 321 321 322 322 322 325 331 330 328 327
325 326 327 329 327 326 326 325 324 323 322 322 323 323 323 324 324 322 321 321 322 321 321 319 319 319 320 321 321 319 319 319 320 320 320 321 321 323 324 327 328 327 327
320 326 326 327 325 325 325 326 325 324 322 322 322 322 323 323 324 322 321 321 322 321 320 320 321 320 323 323 322 319 320 319 320 321 320 320 321 324 322 319 319 322 326
317 322 326 326 326 326 325 323 322 322 321 321 321 322 323 323 323 322 321 321 321 320 320 320 320 323 324 324 322 320 319 318 318 317 317 321 322 321 317 315 315 315 320
315 317 321 322 322 323 319 318 317 319 319 320 322 323 323 324 324 323 324 322 321 321 321 322 322 322 324 324 320 319 318 317 314 314 317 317 316 315 313 313 311 308 307
319 318 318 320 319 322 322 320 321 320 321 323 326 326 327 329 329 328 327 326 326 324 324 324 324 323 323 322 319 317 311 310 312 312 314 314 313 312 311 311 305 302 299
319 318 320 320 320 320 321 322 324 324 324 324 329 329 331 332 332 331 329 328 327 327 326 326 326 324 322 319 320 316 309 304 306 310 310 312 312 311 310 306 302 299 297
315 316 318 319 320 321 323 323 323 322 322 325 327 328 328 329 331 332 331 330 329 328 327 327 326 324 322 318 315 318 318 312 309 307 308 308 308 309 306 302 298 296 295
311 312 315 316 317 317 318 322 325 324 324 325 324 325 323 321 322 324 326 328 328 328 328 326 324 324 322 318 316 315 314 314 313 309 305 303 304 304 301 299 296 294 293
304 305 308 309 308 309 312 314 318 322 320 317 315 315 313 313 317 318 320 321 321 321 319 320 320 321 321 320 317 317 315 313 311 309 306 306 303 301 299 295 293 292 291
Wind_Speed
8 11 16 18 18 17 16 16 16 16 15 15 15 14 13 13 12 12 11 11 11 12 10 10 10 10 11 11 11 11 10 10 8 8 9 9 10 10 10 10 10 6 10
15 13 16 19 18 17 17 17 16 16 15 14 14 13 13 12 11 11 11 10 9 11 10 10 10 9 9 9 9 9 9 9 8 4 1 5 6 8 9 9 9 7 9
17 14 12 19 18 16 16 16 16 16 15 14 13 12 12 12 11 11 11 10 8 10 9 9 9 9 8 7 8 8 8 8 9 6 4 2 2 6 7 7 7 7 7
16 13 11 14 17 16 17 17 16 15 14 13 12 12 12 12 12 11 10 9 9 8 8 8 7 7 6 6 6 7 8 9 10 8 3 3 5 5 5 4 5 5 5
15 13 10 14 15 16 17 17 16 15 14 14 13 12 12 11 11 10 9 8 8 7 7 6 5 5 4 4 5 6 8 8 8 6 4 4 4 5 5 6 3 4 5
14 13 12 16 17 18 16 16 15 15 14 14 14 13 12 11 10 9 9 7 7 6 5 5 4 3 3 3 4 5 7 8 7 5 5 5 3 8 6 7 7 7 6
14 11 12 15 18 18 17 16 15 14 14 14 13 12 12 11 10 10 8 7 6 5 4 3 2 1 2 3 5 6 6 7 5 5 4 4 5 9 7 7 7 8 8
17 12 11 12 14 16 16 15 14 14 13 12 10 9 5 11 12 9 9 7 6 4 3 2 1 2 4 5 6 7 7 7 5 5 5 5 8 8 8 8 8 8 9
14 12 10 10 11 11 12 12 13 13 12 10 10 8 6 8 10 9 8 7 5 5 4 4 4 5 6 7 7 7 8 8 4 3 5 4 9 9 8 9 8 9 11
14 12 14 12 8 7 7 10 10 10 10 10 10 8 6 6 6 6 6 5 6 6 6 6 6 7 8 8 8 9 8 7 4 4 4 4 10 10 10 11 9 9 11
14 16 14 12 10 6 6 7 9 9 9 8 7 8 6 3 4 4 5 6 7 7 7 8 8 8 8 8 9 9 8 3 3 3 3 8 10 10 11 12 12 8 9
18 17 13 13 11 7 6 5 5 5 4 4 5 5 4 4 4 4 5 7 8 7 9 8 9 8 7 4 4 5 3 3 3 4 3 9 10 8 10 13 13 9 8
18 14 15 15 11 10 6 5 2 2 3 3 5 5 4 3 3 3 2 3 3 4 3 4 5 3 5 4 4 4 4 4 3 3 5 9 12 13 10 12 14 13 7
19 16 15 13 12 10 6 6 4 4 3 3 4 5 4 3 3 4 3 4 3 3 4 4 3 4 5 5 5 5 5 4 3 3 4 8 10 13 13 15 14 11 5
16 16 16 12 11 10 8 6 5 5 5 5 4 5 4 4 4 3 4 3 3 3 4 4 4 4 4 5 5 5 6 5 5 3 3 8 9 11 13 16 15 4 6
14 16 15 12 10 9 7 7 6 5 6 5 5 5 6 4 4 4 4 4 4 4 4 4 4 4 4 4 5 6 6 5 5 5 4 4 7 8 10 12 2 6 6
13 12 13 12 9 9 9 6 4 4 4 4 5 6 6 6 6 5 4 4 5 4 5 4 4 3 4 3 5 5 5 6 5 6 5 4 4 5 6 6 7 7 6
11 12 12 11 10 8 7 5 4 4 4 4 4 4 6 6 6 5 4 4 4 3 3 3 3 3 4 4 3 4 4 4 6 6 5 4 3 3 3 0 7 8 7
10 11 11 11 10 9 6 5 5 6 4 4 4 4 6 6 6 5 4 4 4 3 3 3 3 4 4 4 4 4 4 4 5 5 6 5 5 3 3 7 8 8 10
7 8 10 9 10 10 5 4 2 3 3 4 4 4 6 5 6 5 4 5 4 4 4 3 4 4 5 3 3 4 4 4 4 4 5 3 1 4 5 6 5 6 13
7 8 10 9 8 6 2 3 3 4 3 3 4 6 7 6 6 6 5 5 5 5 5 5 3 5 3 3 1 3 3 4 3 4 4 2 4 4 6 6 5 4 6
6 7 6 8 7 8 5 3 3 4 3 3 4 6 7 7 6 5 6 6 6 5 5 6 5 3 3 4 3 0 2 4 3 4 4 3 4 4 5 6 7 7 5
4 2 5 5 6 6 6 2 2 2 1 2 3 3 5 6 6 6 6 5 5 5 5 6 6 7 5 3 5 3 1 3 1 3 4 3 4 4 5 7 7 6 6
4 3 5 5 4 3 1 3 5 3 5 5 4 2 3 2 4 4 5 5 5 4 5 5 4 5 3 5 1 3 2 3 2 2 2 3 5 5 5 5 5 6 5
5 4 4 4 4 3 2 2 4 4 3 2 2 3 1 2 4 4 2 4 3 3 4 5 4 4 3 2 3 2 2 1 2 3 3 2 4 5 5 4 4 4 4
5 3 4 4 4 4 2 3 2 6 4 2 2 2 1 1 2 4 4 3 3 3 3 3 4 3 2 2 1 2 2 1 1 2 2 2 2 3 4 3 4 4 4
Wind_Direction
179 170 167 158 149 145 144 139 133 126 121 116 113 114 115 115 114 114 111 109 90 88 93 104 101 92 85 83 82 79 71 62 54 53 52 59 63 64 61 54 44 27 33
148 159 162 160 150 151 151 145 135 132 128 125 125 125 123 122 123 125 123 121 100 102 98 91 97 94 85 79 76 71 64 50 32 17 348 30 49 62 60 55 45 39 36
147 156 161 158 152 156 158 147 143 139 136 133 131 130 131 132 132 132 126 125 122 111 106 99 90 86 81 72 65 61 56 50 34 36 100 3 341 51 44 46 42 37 28
145 154 158 154 154 159 151 153 151 142 141 138 137 138 139 140 140 140 137 134 131 122 115 108 100 91 78 61 45 36 36 32 38 44 25 344 309 13 27 20 8 12 10
145 151 161 153 158 155 151 156 150 143 147 144 145 145 146 146 144 143 142 141 130 131 122 114 104 90 67 48 34 24 20 24 26 29 1 323 309 321 350 349 349 329 316
145 151 160 159 159 153 152 153 149 149 150 149 150 150 148 150 149 148 147 144 137 133 131 123 111 92 60 24 6 3 2 4 20 357 343 325 321 299 331 343 335 330 322
146 144 155 164 157 154 154 153 152 152 154 155 159 158 161 159 157 157 156 150 149 151 144 128 108 59 360 339 335 336 340 345 356 344 333 323 305 295 305 328 330 329 326
153 148 152 154 152 156 156 155 156 156 158 159 166 154 138 173 157 160 163 165 162 172 174 170 214 277 294 304 313 319 326 334 344 325 313 303 299 289 291 328 327 321 320
158 149 153 154 156 157 158 156 159 161 162 162 159 160 146 114 153 167 169 180 188 204 207 220 246 275 290 297 305 313 316 317 323 309 308 304 299 287 289 315 321 319 311
160 161 162 158 157 158 161 155 157 159 161 166 158 162 167 161 156 165 181 207 214 219 231 246 262 279 290 300 307 307 306 303 292 300 294 288 300 293 291 301 314 318 319
165 171 173 169 161 152 153 165 165 168 170 168 170 172 173 179 203 207 212 226 235 240 247 259 269 280 289 299 303 305 315 296 276 284 286 286 299 289 288 303 308 304 310
175 178 173 176 172 152 163 156 170 169 169 168 170 178 180 193 205 211 228 241 249 256 260 268 279 287 298 292 294 305 297 292 283 281 277 280 289 293 295 295 315 304 299
177 183 179 174 169 165 169 168 163 162 163 177 184 185 194 195 219 234 246 257 255 273 274 288 292 285 281 275 281 288 284 280 272 276 287 291 302 302 297 303 311 320 331
181 182 185 176 169 172 161 170 171 173 176 182 194 192 184 203 219 236 238 237 238 233 258 259 263 268 273 270 267 276 274 271 273 272 274 294 301 310 304 310 315 340 18
181 183 187 180 179 178 174 174 175 186 184 193 190 197 186 197 214 221 233 225 233 229 236 248 252 263 271 275 270 258 271 268 275 277 284 286 289 302 306 304 310 45 46
183 184 185 184 184 179 188 184 188 190 194 186 195 205 200 196 202 210 224 227 233 217 232 237 243 254 262 265 275 272 273 292 296 289 281 286 281 299 311 306 342 74 64
181 177 180 181 186 182 185 182 186 197 195 199 203 205 205 203 212 208 217 229 231 225 241 240 259 256 266 267 263 278 292 298 293 290 287 284 291 282 298 345 90 87 79
175 175 179 180 182 185 183 172 181 196 198 212 207 200 211 211 210 207 221 238 240 240 231 231 242 258 253 258 260 285 287 293 289 281 280 276 270 274 287 217 91 94 84
177 182 180 181 176 184 182 176 181 196 208 216 217 213 212 208 210 206 213 230 229 232 230 227 245 218 242 251 260 271 283 287 283 288 284 280 267 207 131 84 92 87 85
168 181 182 182 187 183 171 166 185 192 229 236 221 209 213 213 214 209 224 231 215 227 237 228 231 242 236 242 275 286 279 282 307 302 290 299 179 134 110 91 77 70 74
165 168 187 186 188 166 144 162 185 213 199 217 237 226 210 217 218 209 218 224 212 212 220 214 217 240 251 203 286 280 288 310 341 359 353 44 97 94 91 91 77 65 57
172 190 179 197 187 189 189 178 165 160 199 184 208 223 225 219 218 211 213 220 211 219 223 222 220 242 240 191 208 156 307 325 17 23 16 31 83 85 83 82 77 72 64
74 189 191 206 200 208 197 144 107 120 69 161 222 220 219 218 221 214 218 216 219 213 230 224 216 212 244 234 219 207 171 235 337 9 23 34 58 64 80 82 77 71 63
55 50 64 74 77 57 216 209 216 217 203 202 198 202 233 287 270 238 218 217 219 210 224 228 212 213 184 231 180 237 243 158 195 320 16 47 49 70 76 81 79 68 56
17 23 45 53 63 23 0 236 226 231 236 257 179 185 105 52 31 20 356 263 255 230 231 221 225 214 202 178 183 164 199 152 156 174 262 202 79 55 64 76 81 74 54
7 73 65 59 31 48 353 306 240 239 205 209 170 184 135 57 38 25 39 56 51 49 24 4 358 339 255 247 144 162 193 190 190 185 219 242 137 87 76 47 66 65 46